| time (UTC) | temp C | wind direction | speed KPH | gust KPH | rain 1hr cm | rain 24hr cm | rain mn cm | humidity % | barometer mb |
| 20260504174541 | 10 | 360 | 0.0 | 4.8 | 0.00 | 0.00 | 0.00 | 49 | 1008.1 |
| 20260504173040 | 10 | 360 | 0.0 | 8.0 | 0.00 | 0.00 | 0.00 | 52 | 1008.2 |
| 20260504171546 | 10 | 360 | 0.0 | 1.6 | 0.00 | 0.00 | 0.00 | 50 | 1008.3 |
| 20260504081548 | 11 | 360 | 0.0 | 0.0 | 0.00 | 0.00 | 0.00 | 38 | 1004.8 |
| 20260504044541 | 12 | 360 | 0.0 | 0.0 | 0.00 | 0.00 | 0.00 | 36 | 1005.3 |
| 20260504043031 | 12 | 360 | 0.0 | 0.0 | 0.00 | 0.00 | 0.00 | 36 | 1005.2 |
| 20260504041531 | 12 | 360 | 0.0 | 0.0 | 0.00 | 0.00 | 0.00 | 37 | 1005.2 |
| 20260504040042 | 12 | 360 | 0.0 | 0.0 | 0.00 | 0.00 | 0.00 | 37 | 1005.1 |
| 20260504034532 | 12 | 360 | 0.0 | 0.0 | 0.00 | 0.00 | 0.00 | 35 | 1004.9 |
| 20260504033029 | 13 | 360 | 0.0 | 0.0 | 0.00 | 0.00 | 0.00 | 33 | 1004.6 |
| 20260504031531 | 13 | 360 | 0.0 | 0.0 | 0.00 | 0.00 | 0.00 | 32 | 1004.4 |
| 20260504030029 | 13 | 360 | 0.0 | 0.0 | 0.00 | 0.00 | 0.00 | 33 | 1004.4 |
| 20260504024528 | 15 | 360 | 0.0 | 0.0 | 0.00 | 0.00 | 0.00 | 31 | 1004.2 |
| 20260504023028 | 16 | 360 | 0.0 | 0.0 | 0.00 | 0.00 | 0.00 | 31 | 1004.2 |
| 20260504021527 | 16 | 360 | 0.0 | 0.0 | 0.00 | 0.00 | 0.00 | 30 | 1004.0 |
| 20260504020026 | 18 | 360 | 0.0 | 0.0 | 0.00 | 0.00 | 0.00 | 30 | 1004.1 |
| 20260504014524 | 18 | 360 | 0.0 | 0.0 | 0.00 | 0.00 | 0.00 | 25 | 1004.1 |
| 20260504013029 | 18 | 360 | 0.0 | 0.0 | 0.00 | 0.00 | 0.00 | 28 | 1004.2 |
| 20260504011520 | 18 | 360 | 0.0 | 0.0 | 0.00 | 0.00 | 0.00 | 26 | 1004.4 |
| 20260504010019 | 18 | 360 | 0.0 | 1.6 | 0.00 | 0.00 | 0.00 | 25 | 1004.5 |
| 20260504004517 | 19 | 360 | 0.0 | 0.0 | 0.00 | 0.00 | 0.00 | 29 | 1004.6 |
| 20260504003015 | 19 | 360 | 0.0 | 0.0 | 0.00 | 0.00 | 0.00 | 25 | 1004.8 |
| 20260504001515 | 20 | 360 | 0.0 | 1.6 | 0.00 | 0.00 | 0.00 | 26 | 1004.9 |
| 20260504000011 | 20 | 360 | 0.0 | 0.0 | 0.00 | 0.00 | 0.00 | 29 | 1005.1 |
| 20260503234509 | 19 | 360 | 0.0 | 0.0 | 0.00 | 0.00 | 0.00 | 26 | 1005.3 |
| 20260503233007 | 19 | 360 | 0.0 | 1.6 | 0.00 | 0.00 | 0.00 | 25 | 1005.4 |
| 20260503231505 | 19 | 360 | 0.0 | 4.8 | 0.00 | 0.00 | 0.00 | 27 | 1005.6 |
| 20260503230004 | 18 | 360 | 0.0 | 3.2 | 0.00 | 0.00 | 0.00 | 26 | 1005.8 |
| 20260503224501 | 19 | 360 | 0.0 | 1.6 | 0.00 | 0.00 | 0.00 | 28 | 1005.9 |
| 20260503223059 | 18 | 360 | 0.0 | 1.6 | 0.00 | 0.00 | 0.00 | 28 | 1006.1 |
| 20260503221602 | 18 | 360 | 0.0 | 16.1 | 0.00 | 0.00 | 0.00 | 29 | 1006.3 |
| 20260503220055 | 18 | 360 | 0.0 | 9.7 | 0.00 | 0.00 | 0.00 | 29 | 1006.6 |
| 20260503214600 | 18 | 360 | 0.0 | 4.8 | 0.00 | 0.00 | 0.00 | 30 | 1006.8 |
| 20260503213051 | 18 | 360 | 0.0 | 3.2 | 0.00 | 0.00 | 0.00 | 33 | 1007.1 |
| 20260503211553 | 18 | 360 | 0.0 | 16.1 | 0.00 | 0.00 | 0.00 | 31 | 1007.4 |
| 20260503210045 | 18 | 360 | 0.0 | 0.0 | 0.00 | 0.00 | 0.00 | 30 | 1007.6 |
| 20260503204552 | 17 | 360 | 0.0 | 3.2 | 0.00 | 0.00 | 0.00 | 37 | 1007.8 |
| 20260503203045 | 18 | 360 | 0.0 | 3.2 | 0.00 | 0.00 | 0.00 | 40 | 1008.0 |
| 20260503201538 | 17 | 360 | 0.0 | 14.5 | 0.00 | 0.00 | 0.00 | 38 | 1008.2 |
| 20260503200036 | 17 | 360 | 0.0 | 8.0 | 0.00 | 0.00 | 0.00 | 33 | 1008.5 |
| 20260503194537 | 17 | 360 | 0.0 | 3.2 | 0.00 | 0.00 | 0.00 | 35 | 1008.6 |
| 20260503193030 | 17 | 360 | 0.0 | 3.2 | 0.00 | 0.00 | 0.00 | 35 | 1008.8 |
| 20260503191528 | 17 | 360 | 0.0 | 14.5 | 0.00 | 0.00 | 0.00 | 36 | 1009.1 |
| 20260503190043 | 17 | 360 | 0.0 | 1.6 | 0.00 | 0.00 | 0.00 | 37 | 1009.3 |
| 20260503184522 | 16 | 360 | 0.0 | 0.0 | 0.00 | 0.00 | 0.00 | 36 | 1009.4 |
| 20260503183022 | 16 | 360 | 0.0 | 0.0 | 0.00 | 0.00 | 0.00 | 37 | 1009.6 |
| 20260503181517 | 16 | 360 | 0.0 | 0.0 | 0.00 | 0.00 | 0.00 | 39 | 1009.7 |
| 20260503180032 | 16 | 360 | 0.0 | 1.6 | 0.00 | 0.00 | 0.00 | 42 | 1009.8 |